Meteopurmerend
purmerend
Purmerend - Baaienwijk



My webcam  My webcam


Onweer radar Meer informatie blitzortung!


Regen radar Meer informatie rain snow radar


Bezoek onze andere website:

CandyAppleRed WebdesignWebdesign Purmerend Candy Apple Red

MeteopurmerendBlog

Template documentation
and downloads



Het weer levert geen direct gevaar op.    Er zijn geen waarschuwingen afgegeven.

15 daagse weersverwachting Halden (NO)

  • Overzicht
  • Per uur
  • 15 dagen
  • Extra
  • Vergelijk
  • Kaarten
  • Dagkaart
  • Meer »
  • Info
  • Statistieken
  • Directe link
    Temp 6h Neerslag Wind  
 04:22     22:03    Daglengte: 17:41 Vandaag
08:00
11°
1.5 mm
3
14:00
14°
9.5 mm
4
20:00
14°
5.0 mm
4
 04:21     22:05    Daglengte: 17:44 Morgen
02:00
 
3
08:00
10°
 
2
14:00
13°
 
4
20:00
10°
1.2 mm
4
 04:19     22:06    Daglengte: 17:47 Zaterdag 28 Mei
02:00
4.9 mm
4
08:00
11°
1.8 mm
3
14:00
16°
3.7 mm
5
20:00
15°
 
4
 04:18     22:08    Daglengte: 17:50 Zondag 29 Mei
02:00
 
2
Locatie info
Region: Østfold
Latitude: 59.1215°N
Longitude: 11.3845°E
15 masl
Postcode: 1771
Temp/Neerslag /Baro Onweer/Dauwpunt
    Temp Baro 1h Neerslag Dauwpunt Wind UV Bewolking  
 04:22     22:03    Daglengte: 17:41 Vandaag
08:00
11°
997.9 hPa
81%
10.0°
3
Windvlaag: 6.7 m/s
76%
09:00
12°
997.9 hPa 1.3 mm
82%
10.7°
3
Windvlaag: 6.5 m/s
72% warningclass
10:00
12°
998.3 hPa 2.2 mm
82%
10.6°
4
Windvlaag: 3.1 m/s
79%
11:00
12°
999.0 hPa 1.3 mm
82%
10.7°
4
Windvlaag: 2.8 m/s
54% warningclass
12:00
12°
999.5 hPa 1.5 mm
82%
10.5°
5
Windvlaag: 3 m/s
75% warningclass
13:00
12°
999.9 hPa 1.8 mm
82%
10.2°
4
Windvlaag: 3 m/s
53%
14:00
14°
1000.3 hPa 1.4 mm
82%
8.8°
4
Windvlaag: 1.9 m/s
65%
15:00
15°
1000.6 hPa 1.2 mm
82%
6.7°
5
Windvlaag: 2.7 m/s
15%
16:00
15°
1001.0 hPa 1.2 mm
81%
6.4°
4
Windvlaag: 3.7 m/s
16%
17:00
15°
1001.0 hPa 1.3 mm
82%
7.4°
4
Windvlaag: 3.1 m/s
14%
18:00
14°
1000.9 hPa 1.3 mm
79%
10.6°
4
Windvlaag: 2.8 m/s
13%
19:00
14°
1001.0 hPa
60%
10.8°
3
Windvlaag: 2.8 m/s
11%
20:00
14°
1001.1 hPa
14%
10.7°
4
Windvlaag: 2.5 m/s
11%
21:00
13°
1001.3 hPa
14%
10.3°
4
Windvlaag: 2.9 m/s
4%
22:00
12°
1001.6 hPa
14%
9.0°
4
Windvlaag: 2.4 m/s
5%
23:00
11°
1001.9 hPa
14%
7.1°
4
Windvlaag: 2.5 m/s
8%
 04:21     22:05    Daglengte: 17:44 Morgen
00:00
10°
1001.8 hPa
14%
6.1°
4
Windvlaag: 3.2 m/s
3%
01:00
10°
Voelt als: 7.8°
1001.6 hPa
14%
5.6°
4
Windvlaag: 2.3 m/s
2%
02:00
Voelt als: 7.4°
1001.5 hPa
14%
5.3°
3
Windvlaag: 2.5 m/s
1%
03:00
Voelt als: 6.8°
1000.9 hPa
14%
4.9°
3
Windvlaag: 1.8 m/s
1%
04:00
Voelt als: 6.5°
1000.6 hPa
14%
4.6°
3
Windvlaag: 1.8 m/s
26%
05:00
Voelt als: 6.4°
1000.5 hPa
14%
4.8°
2
Windvlaag: 1.4 m/s
67%
06:00
Voelt als: 7.4°
1000.4 hPa
14%
4.7°
2
Windvlaag: -0.4 m/s
20%
07:00
Voelt als: 8.6°
1000.2 hPa
14%
4.1°
1
Windvlaag: -0.6 m/s
63%
08:00
10°
Voelt als: 9.3°
1000.3 hPa
16%
3.2°
2
Windvlaag: -0.7 m/s
40%
09:00
11°
1000.2 hPa
15%
3.2°
2
Windvlaag: 0.7 m/s
36%
10:00
12°
1000.0 hPa
30%
2.7°
3
Windvlaag: 0.8 m/s
16%
11:00
13°
999.8 hPa
81%
4.3°
3
Windvlaag: 1.1 m/s
19%
12:00
13°
999.6 hPa
82%
6.1°
4
Windvlaag: 1.3 m/s
18%
13:00
13°
999.5 hPa
82%
7.7°
4
Windvlaag: 2.3 m/s
10%
14:00
13°
999.4 hPa
82%
8.5°
4
Windvlaag: 2.4 m/s
4%
15:00
13°
999.3 hPa
78%
9.2°
4
Windvlaag: 2.6 m/s
60%
16:00
12°
999.4 hPa
72%
8.2°
4
Windvlaag: 2 m/s
76%
17:00
11°
999.7 hPa
78%
6.5°
4
Windvlaag: -0.4 m/s
83%
18:00
10°
999.7 hPa 1.2 mm
81%
7.4°
3
Windvlaag: -2.8 m/s
80%
19:00
11°
999.6 hPa
82%
7.8°
4
Windvlaag: -4.2 m/s
71%
20:00
10°
999.6 hPa
82%
8.3°
4
Windvlaag: -4.9 m/s
85%
21:00
10°
Voelt als: 7.9°
999.9 hPa 1.2 mm
82%
8.1°
4
Windvlaag: -4.2 m/s
85%
22:00
10°
Voelt als: 8.1°
1000.3 hPa
70%
8.3°
3
Windvlaag: -2.3 m/s
65%
23:00
Voelt als: 7.2°
1000.1 hPa 1.8 mm
30%
4.4°
4
Windvlaag: -4.2 m/s
56%
 04:19     22:06    Daglengte: 17:47 Zaterdag 28 Mei
00:00
Voelt als: 6.6°
1000.7 hPa
21%
3.5°
5
Windvlaag: -6.1 m/s
75%
01:00
Voelt als: 6.3°
1001.2 hPa
21%
3.2°
4
Windvlaag: -6.2 m/s
96%
02:00
Voelt als: 6.4°
1001.5 hPa 1.8 mm
21%
3.5°
4
Windvlaag: -6.5 m/s
95%
03:00
Voelt als: 6.5°
1001.7 hPa 1.8 mm
22%
2.1°
4
Windvlaag: -5.3 m/s
88%
04:00
Voelt als: 6.9°
1001.8 hPa
32%
1.9°
3
Windvlaag: -3.2 m/s
87%
05:00
Voelt als: 6.9°
1002.0 hPa
92%
3.1°
3
Windvlaag: -2.3 m/s
78%
06:00
Voelt als: 7.5°
1002.3 hPa
37%
2.0°
3
Windvlaag: -1.8 m/s
77%
07:00
10°
Voelt als: 8.1°
1002.6 hPa
67%
1.8°
3
Windvlaag: -1.4 m/s
78%
08:00
11°
1002.9 hPa
48%
2.0°
3
Windvlaag: -1.7 m/s
51%
09:00
12°
1003.3 hPa 1.8 mm
79%
1.4°
4
Windvlaag: -4 m/s
63%
10:00
13°
1003.6 hPa 1.9 mm
33%
1.5°
5
Windvlaag: -5 m/s
62%
11:00
14°
1003.9 hPa
100%
0.9°
5
Windvlaag: -5.6 m/s
80%
12:00
15°
1003.9 hPa
35%
1.6°
6
Windvlaag: -6.8 m/s
60%
13:00
15°
1004.4 hPa
89%
0.2°
6
Windvlaag: -6.9 m/s
69%
14:00
16°
1004.6 hPa
98%
0.4°
5
Windvlaag: -6.9 m/s
66%
15:00
16°
1004.8 hPa
93%
0.4°
5
Windvlaag: -5.8 m/s
65%
16:00
16°
1005.0 hPa
34%
0.4°
5
Windvlaag: -5.4 m/s
71%
17:00
16°
1005.1 hPa
21%
0.3°
5
Windvlaag: -5.2 m/s
64%
18:00
16°
1005.3 hPa
21%
0.4°
5
Windvlaag: -5.1 m/s
46%
19:00
16°
1005.5 hPa
21%
0.7°
5
Windvlaag: -5.2 m/s
37%
20:00
15°
1005.7 hPa
21%
0.7°
4
Windvlaag: -5.4 m/s
38%
21:00
14°
1006.2 hPa
21%
1.6°
4
Windvlaag: -5 m/s
49%
22:00
12°
1006.8 hPa
21%
2.7°
3
Windvlaag: -4.3 m/s
31%
23:00
11°
1007.3 hPa
21%
2.5°
3
Windvlaag: -3.7 m/s
10%
 04:18     22:08    Daglengte: 17:50 Zondag 29 Mei
00:00
Voelt als: 8.5°
1007.2 hPa
21%
1.1°
2
Windvlaag: 10 m/s
0%
01:00
Voelt als: 7.1°
1007.4 hPa
21%
1.3°
2
Windvlaag: 10.1 m/s
0%
02:00
Voelt als: 6.4°
1007.5 hPa
21%
1.4°
2
Windvlaag: 9.7 m/s
16%
03:00
Voelt als: 6.0°
1007.4 hPa
21%
1.7°
2
Windvlaag: 10 m/s
45%
04:00
Voelt als: 6.2°
1007.3 hPa
21%
2.0°
2
Windvlaag: 10.6 m/s
42%
05:00
Voelt als: 6.2°
1007.5 hPa
22%
1.6°
1
Windvlaag: 10.8 m/s
53%
06:00
Voelt als: 7.1°
1007.5 hPa
21%
0.0°
1
Windvlaag: 4 m/s
63%
07:00
Voelt als: 8.4°
1007.5 hPa
21%
0.1°
2
Windvlaag: 9.6 m/s
22%
Temp/Neerslag /Baro Onweer/Dauwpunt
    Temp Baro Neerslag Dauwpunt Wind Bewolking  
 04:22     22:03    Daglengte: 17:41 Vandaag
08:00
11°
997.9 hPa 1.5 mm 10.0°
3
76%
11:00
12°
999.0 hPa 4.8 mm 10.7°
4
54% warningclass
14:00
14°
1000.3 hPa 4.7 mm 8.8°
4
65%
17:00
15°
1001.0 hPa 3.7 mm 7.4°
4
14%
20:00
14°
1001.1 hPa 1.3 mm 10.7°
4
11%
23:00
11°
1001.9 hPa   7.1°
4
8%
 04:21     22:05    Daglengte: 17:44 Morgen
02:00
Voelt als: 7.4°
1001.5 hPa   5.3°
3
1%
05:00
Voelt als: 6.4°
1000.5 hPa   4.8°
2
67%
08:00
10°
Voelt als: 9.3°
1000.3 hPa   3.2°
2
40%
11:00
13°
999.8 hPa   4.3°
3
19%
14:00
13°
999.4 hPa   8.5°
4
4%
17:00
11°
999.7 hPa   6.5°
4
83%
20:00
10°
999.6 hPa 1.2 mm 8.3°
4
85%
23:00
Voelt als: 7.2°
1000.1 hPa 3.1 mm 4.4°
4
56%
 04:19     22:06    Daglengte: 17:47 Zaterdag 28 Mei
02:00
Voelt als: 6.4°
1001.5 hPa 1.8 mm 3.5°
4
95%
05:00
Voelt als: 6.9°
1002.0 hPa 1.8 mm 3.1°
3
78%
08:00
11°
1002.9 hPa   2.0°
3
51%
11:00
14°
1003.9 hPa 3.7 mm 0.9°
5
80%
14:00
16°
1004.6 hPa   0.4°
5
66%
17:00
16°
1005.1 hPa   0.3°
5
64%
20:00
15°
1005.7 hPa   0.7°
4
38%
23:00
11°
1007.3 hPa   2.5°
3
10%
 04:18     22:08    Daglengte: 17:50 Zondag 29 Mei
02:00
Voelt als: 6.4°
1007.5 hPa   1.4°
2
16%
05:00
Voelt als: 6.2°
1007.5 hPa   1.6°
1
53%
08:00
10°
1007.5 hPa   0.1°
2
20%
11:00
15°
1007.6 hPa 6.9 mm -0.1°
2
1%
14:00
17°
1007.0 hPa 6.9 mm 1.1°
3
1%
17:00
18°
1006.8 hPa 6.9 mm 1.0°
2
1%
20:00
16°
1006.9 hPa 6.9 mm 3.5°
2
1%
23:00
Voelt als: 8.3°
1008.8 hPa 6.9 mm 2.6°
2
1%
 04:16     22:10    Daglengte: 17:54 Maandag 30 Mei
02:00
Voelt als: 5.4°
1009.9 hPa 6.9 mm 4.7°
3
1%
05:00
Voelt als: 4.6°
1010.5 hPa 6.9 mm 4.9°
3
1%
08:00
12°
1010.6 hPa 6.9 mm 5.4°
3
1%
11:00
15°
1010.0 hPa 7.0 mm 4.7°
2
1%
14:00
15°
1010.1 hPa 7.3 mm 5.7°
1
1%
17:00
16°
1009.9 hPa 7.6 mm 6.1°
1
1%
20:00
14°
1009.9 hPa 7.7 mm 7.9°
1
1%
23:00
11°
1011.1 hPa 7.8 mm 8.4°
2
1%
 04:15     22:12    Daglengte: 17:57 Dinsdag 31 Mei
02:00
10°
1011.6 hPa 7.9 mm 8.4°
2
1%
05:00
Voelt als: 8.9°
1011.9 hPa 7.9 mm 6.0°
2
1%
08:00
13°
1012.4 hPa 7.9 mm 6.5°
3
1%
11:00
12°
1012.8 hPa 8.1 mm 7.8°
3
1%
14:00
15°
1012.5 hPa 8.3 mm 5.3°
3
1%
17:00
15°
1012.2 hPa 8.8 mm 6.0°
3
1%
20:00
13°
1012.6 hPa 8.9 mm 6.3°
2
1%
23:00
Voelt als: 8.1°
1013.6 hPa 8.9 mm 6.7°
0
0%
 04:13     22:13    Daglengte: 18:00 Woensdag 01 Jun
02:00
Voelt als: 6.9°
1013.7 hPa 8.9 mm 5.9°
1
0%
05:00
Voelt als: 6.7°
1014.0 hPa 8.9 mm 5.5°
1
0%
08:00
13°
1014.5 hPa 8.9 mm 6.4°
1
0%
11:00
16°
1014.0 hPa 9.1 mm 6.3°
2
1%
14:00
17°
1014.2 hPa 9.4 mm 5.2°
4
0%
17:00
16°
1014.8 hPa 9.4 mm 4.8°
4
0%
20:00
14°
1015.0 hPa 9.4 mm 7.4°
3
0%
23:00
10°
Voelt als: 8.5°
1015.2 hPa 9.4 mm 9.3°
3
0%
 04:12     22:15    Daglengte: 18:03 Donderdag 02 Jun
02:00
10°
Voelt als: 8.1°
1015.3 hPa 9.4 mm 8.9°
3
0%
05:00
11°
1015.6 hPa   10.0°
3
0%
08:00
15°
1015.4 hPa 18.8 mm 8.0°
2
0%
14:00
19°
1017.0 hPa 18.8 mm 3.7°
4
0%
20:00
15°
1017.0 hPa 18.8 mm 5.2°
3
1%
 04:11     22:16    Daglengte: 18:05 Vrijdag 03 Jun
02:00
10°
Voelt als: 9.5°
1018.6 hPa 18.8 mm 6.3°
1
1%
08:00
16°
1018.6 hPa 18.8 mm 5.6°
3
1%
14:00
23°
1018.1 hPa 18.8 mm 5.6°
2
0%
20:00
19°
1018.8 hPa 18.8 mm 9.9°
1
1%
 04:10     22:18    Daglengte: 18:08 Zaterdag 04 Jun
02:00
12°
1021.3 hPa 18.8 mm 7.6°
3
0%
08:00
18°
1023.1 hPa 18.8 mm 8.3°
3
1%
14:00
24°
1022.6 hPa 18.8 mm 6.2°
3
0%
20:00
18°
1023.5 hPa 18.8 mm 10.7°
2
1%
 04:09     22:19    Daglengte: 18:10 Zondag 05 Jun
02:00
11°
1014.9 hPa 0.5 mm 7.7°
0
53%
08:00
13°
1014.8 hPa 0.2 mm 7.5°
1
50%
14:00
18°
1014.2 hPa 0.6 mm 7.0°
1
56%
20:00
16°
1013.3 hPa 0.5 mm 8.2°
1
59%
 04:08     22:21    Daglengte: 18:13 Maandag 06 Jun
02:00
11°
1014.4 hPa 0.1 mm 7.8°
1
53%
08:00
14°
1014.3 hPa 0.2 mm 8.4°
1
54%
14:00
18°
1013.4 hPa 0.4 mm 8.5°
1
60%
20:00
16°
1012.1 hPa 0.8 mm 9.3°
1
58%
 04:07     22:22    Daglengte: 18:15 Dinsdag 07 Jun
02:00
11°
1012.6 hPa 0.3 mm 8.2°
1
43%
08:00
14°
1012.1 hPa 0.2 mm 8.5°
1
58%
14:00
18°
1010.7 hPa 0.4 mm 8.7°
1
68%
20:00
16°
1009.6 hPa 0.7 mm 9.4°
2
68%
 04:06     22:23    Daglengte: 18:17 Woensdag 08 Jun
02:00
11°
1010.4 hPa 0.3 mm 8.7°
1
54%
08:00
14°
1010.0 hPa 0.6 mm 9.4°
0
63%
14:00
18°
1009.4 hPa 0.9 mm 9.8°
1
64%
20:00
16°
1008.8 hPa 1.2 mm 10.0°
1
66%
 04:05     22:24    Daglengte: 18:19 Donderdag 09 Jun
02:00
12°
1009.8 hPa 0.3 mm 9.0°
0
69%
08:00
14°
1009.9 hPa 0.3 mm 8.8°
0
74%
14:00
18°
1009.4 hPa 0.5 mm 8.6°
2
71%
20:00
17°
1008.7 hPa 0.7 mm 9.5°
2
58%
 04:05     22:25    Daglengte: 18:20 Vrijdag 10 Jun
02:00
12°
1009.7 hPa 0.3 mm 8.9°
1
48%
  CAPE Lifted Index Hail Supercell Tornado SRH 3km CL BTM PRES CL TOP PRES Swiss DWD icon SMHI TS
 04:22     22:03    Daglengte: 17:41 Vandaag
08:00 188 J/kg -0.9 K 0 % 0 % 0 % 0 m²/s² 0 0 -0.12 3
09:00 193 J/kg -0.8 K 0 % 0 % 0 % 0 m²/s² 0 0 0.07 95
10:00 132 J/kg -0.3 K 0 % 0 % 0 % 0 m²/s² 0 0 0.03 80
11:00 161 J/kg -0.7 K 0 % 0 % 0 % 0 m²/s² 0 0 -0.34 95
12:00 270 J/kg -1.3 K 0 % 0 % 0 % 0 m²/s² 0 0 -0.61 95
13:00 247 J/kg -1.2 K 0 % 0 % 0 % 0 m²/s² 0 0 -0.84 80
14:00 278 J/kg -1.2 K 0 % 0 % 0 % 0 m²/s² 0 0 -0.24 80
15:00 148 J/kg -0.2 K 0 % 0 % 0 % 0 m²/s² 0 0 1.03 2
16:00 75 J/kg 0.6 K 0 % 0 % 0 % 0 m²/s² 0 0 2.16 80
17:00 42 J/kg 1.3 K 0 % 0 % 0 % 0 m²/s² 0 0 3.01 2
18:00 30 J/kg 1.8 K 0 % 0 % 0 % 0 m²/s² 0 0 4.5 80
19:00 9 J/kg 2.0 K 0 % 0 % 0 % 0 m²/s² 0 0 6.32 2
20:00 13 J/kg 2.1 K 0 % 0 % 0 % 0 m²/s² 0 0 7.44 1
21:00 8 J/kg 2.5 K 0 % 0 % 0 % 0 m²/s² 0 0 7.03 0
22:00 0 J/kg 2.7 K 0 % 0 % 0 % 0 m²/s² 0 0 7.11 0
23:00 0 J/kg 2.6 K 0 % 0 % 0 % 0 m²/s² 0 0 7.01 0
 04:21     22:05    Daglengte: 17:44 Morgen
00:00 0 J/kg 2.9 K 0 % 0 % 0 % 0 m²/s² 0 0 8.21 0
01:00 0 J/kg 2.8 K 0 % 0 % 0 % 0 m²/s² 0 0 7.33 0
02:00 0 J/kg 3.0 K 0 % 0 % 0 % 0 m²/s² 0 0 7.29 1
03:00 0 J/kg 2.9 K 0 % 0 % 0 % 0 m²/s² 0 0 7.28 2
04:00 0 J/kg 3.0 K 0 % 0 % 0 % 0 m²/s² 0 0 8.58 2
05:00 0 J/kg 3.0 K 0 % 0 % 0 % 0 m²/s² 0 0 9.3 3
06:00 0 J/kg 2.7 K 0 % 0 % 0 % 0 m²/s² 0 0 7.56 2
07:00 0 J/kg 2.4 K 0 % 0 % 0 % 0 m²/s² 0 0 6.45 3
08:00 0 J/kg 2.0 K 0 % 0 % 0 % 0 m²/s² 0 0 5.96 3
09:00 5 J/kg 1.7 K 0 % 0 % 0 % 0 m²/s² 0 0 5.54 3
10:00 52 J/kg 0.9 K 0 % 0 % 0 % 0 m²/s² 0 0 4.65 3
11:00 89 J/kg 0.8 K 0 % 0 % 0 % 0 m²/s² 0 0 3.83 3
12:00 55 J/kg 1.3 K 0 % 0 % 0 % 0 m²/s² 0 0 4.18 3
13:00 41 J/kg 1.6 K 0 % 0 % 0 % 0 m²/s² 0 0 4.81 80
14:00 63 J/kg 1.3 K 0 % 0 % 0 % 0 m²/s² 0 0 5.05 80
15:00 59 J/kg 1.1 K 0 % 0 % 0 % 0 m²/s² 0 0 6.38 80
16:00 53 J/kg 0.9 K 0 % 0 % 0 % 0 m²/s² 0 0 4.5 3
17:00 31 J/kg 1.1 K 0 % 0 % 0 % 0 m²/s² 0 0 2 3
18:00 43 J/kg 1.0 K 0 % 0 % 0 % 0 m²/s² 0 0 1.48 61
19:00 24 J/kg 1.5 K 0 % 0 % 0 % 0 m²/s² 0 0 1.89 61
20:00 0 J/kg 1.6 K 0 % 0 % 0 % 0 m²/s² 0 0 1.99 61
21:00 30 J/kg -0.4 K 0 % 0 % 0 % 0 m²/s² 0 0 -0.01 61
22:00 75 J/kg 0.0 K 0 % 0 % 0 % 0 m²/s² 0 0 0.66 3
23:00 3 J/kg 2.4 K 0 % 0 % 0 % 0 m²/s² 0 0 3 3
 04:19     22:06    Daglengte: 17:47 Zaterdag 28 Mei
00:00 0 J/kg 4.5 K 0 % 0 % 0 % 0 m²/s² 0 0 5.43 2
01:00 0 J/kg 4.5 K 0 % 0 % 0 % 0 m²/s² 0 0 5.07 3
02:00 0 J/kg 4.1 K 0 % 0 % 0 % 0 m²/s² 0 0 4.76 3
03:00 0 J/kg 3.1 K 0 % 0 % 0 % 0 m²/s² 0 0 3.82 3
04:00 0 J/kg 3.5 K 0 % 0 % 0 % 0 m²/s² 0 0 4.61 3
05:00 0 J/kg 3.8 K 0 % 0 % 0 % 0 m²/s² 0 0 5.06 3
06:00 0 J/kg 4.2 K 0 % 0 % 0 % 0 m²/s² 0 0 5.04 3
07:00 0 J/kg 6.2 K 0 % 0 % 0 % 0 m²/s² 0 0 6.83 3
08:00 0 J/kg 6.2 K 0 % 0 % 0 % 0 m²/s² 0 0 7.79 3
09:00 0 J/kg 6.5 K 0 % 0 % 0 % 0 m²/s² 0 0 7.25 3
10:00 0 J/kg 6.0 K 0 % 0 % 0 % 0 m²/s² 0 0 6.75 3
11:00 0 J/kg 5.3 K 0 % 0 % 0 % 0 m²/s² 0 0 6.68 61
12:00 0 J/kg 4.3 K 0 % 0 % 0 % 0 m²/s² 0 0 5.89 3
13:00 0 J/kg 4.0 K 0 % 0 % 0 % 0 m²/s² 0 0 5.56 3
14:00 0 J/kg 3.6 K 0 % 0 % 0 % 0 m²/s² 0 0 5.19 3
15:00 3 J/kg 3.3 K 0 % 0 % 0 % 0 m²/s² 0 0 4.74 3
16:00 17 J/kg 3.3 K 0 % 0 % 0 % 0 m²/s² 0 0 4.68 3
17:00 22 J/kg 2.6 K 0 % 0 % 0 % 0 m²/s² 0 0 3.98 3
18:00 25 J/kg 2.3 K 0 % 0 % 0 % 0 m²/s² 0 0 4.13 2
19:00 26 J/kg 2.0 K 0 % 0 % 0 % 0 m²/s² 0 0 4.49 2
20:00 12 J/kg 2.2 K 0 % 0 % 0 % 0 m²/s² 0 0 5.41 2
21:00 0 J/kg 3.2 K 0 % 0 % 0 % 0 m²/s² 0 0 6.74 3
22:00 0 J/kg 4.4 K 0 % 0 % 0 % 0 m²/s² 0 0 8.51 2
23:00 0 J/kg 5.0 K 0 % 0 % 0 % 0 m²/s² 0 0 9.8 1
 04:18     22:08    Daglengte: 17:50 Zondag 29 Mei
00:00 0 J/kg 5.4 K 0 % 0 % 0 % 0 m²/s² 0 0 10.59 1
01:00 0 J/kg 5.8 K 0 % 0 % 0 % 0 m²/s² 0 0 10.84 1
02:00 0 J/kg 6.7 K 0 % 0 % 0 % 0 m²/s² 0 0 11.47 1
03:00 0 J/kg 7.0 K 0 % 0 % 0 % 0 m²/s² 0 0 11.29 2
04:00 0 J/kg 7.2 K 0 % 0 % 0 % 0 m²/s² 0 0 11.37 2
05:00 0 J/kg 7.6 K 0 % 0 % 0 % 0 m²/s² 0 0 11.44 2
06:00 0 J/kg 7.9 K 0 % 0 % 0 % 0 m²/s² 0 0 11.47 3
07:00 0 J/kg 8.1 K 0 % 0 % 0 % 0 m²/s² 0 0 11.31 2
Temp Baro Wind Neerslag
  EWN Forecast EWN WRFDA DWD ICON FMI HIRLAM MET Norway GFS
 04:22     22:03    Daglengte: 17:41 Vandaag
08:00 10.7° 997.9 hPa 3.0 m/s 1.5 mm 12.0° 995.8 hPa 6.6 m/s 7.0 mm 10.8° 998.5 hPa 2.3 m/s 1.0 mm 10.4° 997.2 hPa 2.5 m/s 0.0 mm 10.9° 997.7 hPa 3.3 m/s
11:00 12.0° 999.0 hPa 4.4 m/s 4.8 mm 12.3° 998.4 hPa 5.6 m/s 11.5 mm 12.8° 999.5 hPa 3.4 m/s 3.5 mm 11.9° 997.6 hPa 4.4 m/s 0.0 mm 12.5° 998.9 hPa 5.1 m/s
14:00 13.7° 1000.3 hPa 4.5 m/s 4.7 mm 16.6° 998.4 hPa 6.3 m/s 14.1 mm 13.5° 1001.1 hPa 3.7 m/s 3.7 mm 12.9° 1000.2 hPa 4.3 m/s 0.0 mm 14.8° 1000.3 hPa 3.2 m/s
17:00 15.4° 1001.0 hPa 4.2 m/s 3.7 mm 16.9° 999.0 hPa 7.5 m/s 15.4 mm 15.4° 1001.4 hPa 3.8 m/s 0.5 mm 15.5° 1001.4 hPa 3.0 m/s 0.0 mm 16.5° 999.7 hPa 5.9 m/s
20:00 13.7° 1001.1 hPa 4.0 m/s 1.3 mm 15.2° 999.5 hPa 6.2 m/s 15.5 mm 14.3° 1000.6 hPa 3.8 m/s 0.2 mm 13.5° 1002.1 hPa 2.1 m/s 0.0 mm 14.7° 999.4 hPa 5.0 m/s
23:00 10.7° 1001.9 hPa 4.1 m/s 0.0 mm 11.4° 1000.5 hPa 5.0 m/s 15.5 mm 10.6° 1001.3 hPa 3.9 m/s 0.0 mm 10.3° 1003.2 hPa 3.0 m/s 0.0 mm 11.1° 1000.2 hPa 6.0 m/s
 04:21     22:05    Daglengte: 17:44 Morgen
02:00 9.2° 1001.5 hPa 3.3 m/s 0.0 mm 7.8° 999.7 hPa 3.6 m/s 15.5 mm 8.6° 1000.1 hPa 3.1 m/s 0.0 mm 9.3° 1003.3 hPa 3.0 m/s 0.0 mm 8.6° 999.5 hPa 4.6 m/s
05:00 7.8° 1000.5 hPa 2.2 m/s 0.0 mm 4.9° 998.2 hPa 1.8 m/s 15.5 mm 6.8° 999.3 hPa 1.2 m/s 0.0 mm 8.2° 1002.8 hPa 2.3 m/s 0.0 mm 5.8° 999.1 hPa 1.8 m/s
08:00 9.9° 1000.3 hPa 1.7 m/s 0.0 mm 10.1° 998.3 hPa 1.6 m/s 15.5 mm 9.7° 999.1 hPa 1.7 m/s 0.0 mm 11.1° 1002.2 hPa 2.1 m/s 0.0 mm 9.9° 998.5 hPa 4.4 m/s
11:00 12.6° 999.8 hPa 3.3 m/s 0.0 mm 13.6° 998.1 hPa 3.9 m/s 15.5 mm 11.7° 999.1 hPa 3.3 m/s 0.1 mm 14.0° 1001.3 hPa 2.8 m/s 0.0 mm 10.5° 999.1 hPa 4.9 m/s
14:00 12.8° 999.4 hPa 4.2 m/s 0.0 mm 14.4° 997.8 hPa 5.4 m/s 15.5 mm 12.3° 999.2 hPa 4.4 m/s 0.7 mm 12.5° 1001.3 hPa 3.4 m/s 0.0 mm 10.1° 999.3 hPa 4.2 m/s
17:00 10.9° 999.7 hPa 3.7 m/s 0.0 mm 14.2° 996.9 hPa 6.0 m/s 15.5 mm 10.3° 999.8 hPa 4.9 m/s 0.4 mm 10.1° 1001.5 hPa 3.3 m/s 0.0 mm 8.6° 999.4 hPa 4.5 m/s
20:00 10.3° 999.6 hPa 4.4 m/s 1.2 mm 13.7° 997.3 hPa 6.4 m/s 15.5 mm 8.7° 999.6 hPa 4.4 m/s 4.0 mm 10.7° 1000.7 hPa 2.4 m/s 0.0 mm 8.3° 999.2 hPa 3.9 m/s
23:00 9.4° 1000.1 hPa 4.2 m/s 3.1 mm 11.2° 998.5 hPa 4.5 m/s 15.6 mm 9.2° 1001.0 hPa 3.0 m/s 0.2 mm 8.2° 1000.4 hPa 3.7 m/s
 04:19     22:06    Daglengte: 17:47 Zaterdag 28 Mei
02:00 8.6° 1001.5 hPa 3.7 m/s 1.8 mm 9.4° 999.0 hPa 3.5 m/s 15.6 mm 8.6° 1001.8 hPa 3.0 m/s 0.0 mm 9.4° 1001.5 hPa 4.0 m/s
05:00 8.6° 1002.0 hPa 3.0 m/s 1.8 mm 9.1° 999.8 hPa 3.5 m/s 15.6 mm 8.8° 1002.3 hPa 2.3 m/s 0.0 mm 6.9° 1002.4 hPa 1.6 m/s
08:00 10.6° 1002.9 hPa 3.4 m/s 0.0 mm 13.7° 1001.1 hPa 6.3 m/s 15.6 mm 10.3° 1003.0 hPa 2.2 m/s 0.0 mm 11.9° 1003.5 hPa 3.4 m/s
11:00 13.7° 1003.9 hPa 5.0 m/s 3.7 mm 17.6° 1002.0 hPa 7.3 m/s 15.6 mm 13.5° 1003.9 hPa 3.4 m/s 0.1 mm 16.5° 1004.0 hPa 4.7 m/s
14:00 15.5° 1004.6 hPa 5.2 m/s 0.0 mm 19.4° 1002.6 hPa 7.1 m/s 15.6 mm 15.2° 1004.6 hPa 4.0 m/s 0.0 mm 18.2° 1004.6 hPa 3.8 m/s
17:00 16.3° 1005.1 hPa 4.7 m/s 0.0 mm 20.1° 1002.8 hPa 6.5 m/s 15.6 mm 16.0° 1005.0 hPa 4.1 m/s 0.0 mm 18.3° 1005.2 hPa 3.4 m/s
20:00 15.5° 1005.7 hPa 4.3 m/s 0.0 mm 18.2° 1003.4 hPa 6.0 m/s 15.6 mm 15.3° 1005.6 hPa 3.0 m/s 0.0 mm 15.9° 1005.7 hPa 2.1 m/s
23:00 10.9° 1007.3 hPa 2.7 m/s 0.0 mm 10.8° 1004.9 hPa 2.8 m/s 15.6 mm 10.5° 1007.2 hPa 1.3 m/s 0.0 mm 11.2° 1006.8 hPa 2.3 m/s
 04:18     22:08    Daglengte: 17:50 Zondag 29 Mei
02:00 7.5° 1007.5 hPa 1.9 m/s 0.0 mm 7.5° 1005.4 hPa 2.9 m/s 15.6 mm 7.5° 1008.0 hPa 1.7 m/s 0.0 mm 8.0° 1007.2 hPa 2.6 m/s
05:00 6.9° 1007.5 hPa 1.4 m/s 0.0 mm 6.0° 1005.4 hPa 2.6 m/s 15.6 mm 7.1° 1008.0 hPa 1.1 m/s 0.0 mm 7.5° 1007.6 hPa 2.3 m/s
08:00 10.4° 1007.5 hPa 2.4 m/s 0.0 mm 10.6° 1005.1 hPa 3.8 m/s 15.6 mm 10.4° 1008.1 hPa 2.0 m/s 0.0 mm 11.4° 1008.0 hPa 1.9 m/s
11:00 15.5° 1007.6 hPa 1.9 m/s 6.9 mm 15.5° 1007.6 hPa 1.9 m/s 6.9 mm
14:00 17.2° 1007.0 hPa 2.7 m/s 6.9 mm 17.2° 1007.0 hPa 2.7 m/s 6.9 mm
17:00 17.6° 1006.8 hPa 2.1 m/s 6.9 mm 17.6° 1006.8 hPa 2.1 m/s 6.9 mm
20:00 15.8° 1006.9 hPa 1.7 m/s 6.9 mm 15.8° 1006.9 hPa 1.7 m/s 6.9 mm
23:00 9.2° 1008.8 hPa 1.9 m/s 6.9 mm 9.2° 1008.8 hPa 1.9 m/s 6.9 mm
 04:16     22:10    Daglengte: 17:54 Maandag 30 Mei
02:00 7.6° 1009.9 hPa 3.3 m/s 6.9 mm 7.6° 1009.9 hPa 3.3 m/s 6.9 mm
05:00 6.6° 1010.5 hPa 2.7 m/s 6.9 mm 6.6° 1010.5 hPa 2.7 m/s 6.9 mm
08:00 11.7° 1010.6 hPa 2.8 m/s 6.9 mm 11.7° 1010.6 hPa 2.8 m/s 6.9 mm
11:00 15.1° 1010.0 hPa 2.2 m/s 7.0 mm 15.1° 1010.0 hPa 2.2 m/s 7.0 mm
14:00 15.4° 1010.1 hPa 1.2 m/s 7.3 mm 15.4° 1010.1 hPa 1.2 m/s 7.3 mm
17:00 15.6° 1009.9 hPa 0.8 m/s 7.6 mm 15.6° 1009.9 hPa 0.8 m/s 7.6 mm
20:00 14.3° 1009.9 hPa 1.2 m/s 7.7 mm 14.3° 1009.9 hPa 1.2 m/s 7.7 mm
23:00 10.7° 1011.1 hPa 2.3 m/s 7.8 mm 10.7° 1011.1 hPa 2.3 m/s 7.8 mm
 04:15     22:12    Daglengte: 17:57 Dinsdag 31 Mei
02:00 10.3° 1011.6 hPa 1.5 m/s 7.9 mm 10.3° 1011.6 hPa 1.5 m/s 7.9 mm
05:00 9.4° 1011.9 hPa 1.6 m/s 7.9 mm 9.4° 1011.9 hPa 1.6 m/s 7.9 mm
08:00 12.6° 1012.4 hPa 2.6 m/s 7.9 mm 12.6° 1012.4 hPa 2.6 m/s 7.9 mm
11:00 11.8° 1012.8 hPa 2.9 m/s 8.1 mm 11.8° 1012.8 hPa 2.9 m/s 8.1 mm
14:00 14.8° 1012.5 hPa 3.4 m/s 8.3 mm 14.8° 1012.5 hPa 3.4 m/s 8.3 mm
17:00 14.9° 1012.2 hPa 2.9 m/s 8.8 mm 14.9° 1012.2 hPa 2.9 m/s 8.8 mm
20:00 13.4° 1012.6 hPa 2.0 m/s 8.9 mm 13.4° 1012.6 hPa 2.0 m/s 8.9 mm
23:00 8.1° 1013.6 hPa 0.4 m/s 8.9 mm 8.1° 1013.6 hPa 0.4 m/s 8.9 mm
 04:13     22:13    Daglengte: 18:00 Woensdag 01 Jun
02:00 6.9° 1013.7 hPa 0.7 m/s 8.9 mm 6.9° 1013.7 hPa 0.7 m/s 8.9 mm
05:00 6.7° 1014.0 hPa 0.9 m/s 8.9 mm 6.7° 1014.0 hPa 0.9 m/s 8.9 mm
08:00 13.3° 1014.5 hPa 0.8 m/s 8.9 mm 13.3° 1014.5 hPa 0.8 m/s 8.9 mm
11:00 16.2° 1014.0 hPa 2.3 m/s 9.1 mm 16.2° 1014.0 hPa 2.3 m/s 9.1 mm
14:00 17.3° 1014.2 hPa 3.8 m/s 9.4 mm 17.3° 1014.2 hPa 3.8 m/s 9.4 mm
17:00 16.2° 1014.8 hPa 4.2 m/s 9.4 mm 16.2° 1014.8 hPa 4.2 m/s 9.4 mm
20:00 13.8° 1015.0 hPa 3.3 m/s 9.4 mm 13.8° 1015.0 hPa 3.3 m/s 9.4 mm
23:00 9.9° 1015.2 hPa 2.8 m/s 9.4 mm 9.9° 1015.2 hPa 2.8 m/s 9.4 mm
 04:12     22:15    Daglengte: 18:03 Donderdag 02 Jun
02:00 9.5° 1015.3 hPa 2.7 m/s 9.4 mm 9.5° 1015.3 hPa 2.7 m/s 9.4 mm
05:00 10.5° 1015.6 hPa 3.0 m/s 9.4 mm 10.5° 1015.6 hPa 3.0 m/s 9.4 mm
08:00 15.5° 1015.4 hPa 1.8 m/s 9.4 mm 15.5° 1015.4 hPa 1.8 m/s 9.4 mm
14:00 18.8° 1017.0 hPa 4.0 m/s 9.4 mm 18.8° 1017.0 hPa 4.0 m/s 9.4 mm
20:00 14.6° 1017.0 hPa 2.9 m/s 9.4 mm 14.6° 1017.0 hPa 2.9 m/s 9.4 mm
 04:11     22:16    Daglengte: 18:05 Vrijdag 03 Jun
02:00 9.5° 1018.6 hPa 0.7 m/s 9.4 mm 9.5° 1018.6 hPa 0.7 m/s 9.4 mm
08:00 15.7° 1018.6 hPa 2.7 m/s 9.4 mm 15.7° 1018.6 hPa 2.7 m/s 9.4 mm
14:00 23.3° 1018.1 hPa 1.7 m/s 9.4 mm 23.3° 1018.1 hPa 1.7 m/s 9.4 mm
20:00 18.5° 1018.8 hPa 1.5 m/s 9.4 mm 18.5° 1018.8 hPa 1.5 m/s 9.4 mm
 04:10     22:18    Daglengte: 18:08 Zaterdag 04 Jun
02:00 12.4° 1021.3 hPa 2.7 m/s 9.4 mm 12.4° 1021.3 hPa 2.7 m/s 9.4 mm
08:00 18.0° 1023.1 hPa 3.5 m/s 9.4 mm 18.0° 1023.1 hPa 3.5 m/s 9.4 mm
14:00 24.0° 1022.6 hPa 2.6 m/s 9.4 mm 24.0° 1022.6 hPa 2.6 m/s 9.4 mm
20:00 18.2° 1023.5 hPa 2.5 m/s 9.4 mm 18.2° 1023.6 hPa 2.5 m/s 9.4 mm
 04:09     22:19    Daglengte: 18:10 Zondag 05 Jun
02:00 10.9° 1014.9 hPa 0.5 m/s 0.5 mm
08:00 13.5° 1014.8 hPa 1.1 m/s 0.2 mm
14:00 18.2° 1014.2 hPa 0.8 m/s 0.6 mm
20:00 16.1° 1013.3 hPa 1.0 m/s 0.5 mm
 04:08     22:21    Daglengte: 18:13 Maandag 06 Jun
02:00 10.8° 1014.4 hPa 0.6 m/s 0.1 mm
08:00 13.7° 1014.3 hPa 0.8 m/s 0.2 mm
14:00 18.2° 1013.4 hPa 1.0 m/s 0.4 mm
20:00 16.3° 1012.1 hPa 1.0 m/s 0.8 mm
 04:07     22:22    Daglengte: 18:15 Dinsdag 07 Jun
02:00 11.0° 1012.6 hPa 0.6 m/s 0.3 mm
08:00 14.0° 1012.1 hPa 0.9 m/s 0.2 mm
14:00 18.1° 1010.7 hPa 1.1 m/s 0.4 mm
20:00 16.1° 1009.6 hPa 2.0 m/s 0.7 mm
 04:06     22:23    Daglengte: 18:17 Woensdag 08 Jun
02:00 11.5° 1010.4 hPa 0.8 m/s 0.3 mm
08:00 13.9° 1010.0 hPa 0.2 m/s 0.6 mm
14:00 18.2° 1009.4 hPa 1.5 m/s 0.9 mm
20:00 16.3° 1008.8 hPa 1.3 m/s 1.2 mm
 04:05     22:24    Daglengte: 18:19 Donderdag 09 Jun
02:00 11.6° 1009.8 hPa 0.4 m/s 0.3 mm
08:00 13.9° 1009.9 hPa 0.2 m/s 0.3 mm
14:00 18.0° 1009.4 hPa 2.0 m/s 0.5 mm
20:00 16.5° 1008.7 hPa 1.9 m/s 0.7 mm
 04:05     22:25    Daglengte: 18:20 Vrijdag 10 Jun
02:00 11.7° 1009.7 hPa 1.5 m/s 0.3 mm
FMI Hirlam - 7.5 km EWN WRFDA - 12 km DWD ICON - 7 km GFS - 25 km Basiskaart






























































Updatetijd (Europe/Amsterdam) Resolutie Lengte Stap
FMI Hirlam 01:45, 07:45, 13:45, 19:45 7.5 km 49h 1h
EWN WRFDA 04:15, 10:15, 16:15, 22:15 12 km 73h 1h
DWD ICON 05:45, 11:45, 17:45, 23:45 7 km 75h 1h
GFS 02:15, 08:15, 14:15, 20:15 25 km 237h 3h
30+ mm
25-30 mm
20-25 mm
15-20 mm
10-15 mm
6-10 mm
4-6 mm
2-4 mm
1-2 mm
0.5-1 mm
0.2-0.5 mm
0.1-0.2 mm
30+ mm
25-30 mm
20-25 mm
15-20 mm
10-15 mm
6-10 mm
4-6 mm
2-4 mm
1-2 mm
0.5-1 mm
0.2-0.5 mm
0.1-0.2 mm
Sneeuwval
Natte sneeuw
Hagel
Vorst
30+ mm
25-30 mm
20-25 mm
15-20 mm
10-15 mm
6-10 mm
4-6 mm
2-4 mm
1-2 mm
0.5-1 mm
0.2-0.5 mm
0.1-0.2 mm
Sneeuwval
Natte sneeuw
Hagel
Vorst
Onweer
50 mm
40 mm
30 mm
26 mm
22 mm
18 mm
14 mm
10 mm
9 mm
8 mm
7 mm
6 mm
5 mm
4.5 mm
4 mm
3.5 mm
3 mm
2.5 mm
2 mm
1.5 mm
1 mm
0.8 mm
0.6 mm
0.4 mm
0.2 mm
0.05 mm
35°
30°
25°
20°
15°
10°
-5°
-10°
-15°
-20°
-25°
-30°
-35°
33> m/s
29 m/s
25 m/s
21 m/s
17 m/s
14 m/s
11 m/s
8 m/s
5 m/s
3 m/s
0 m/s
2600 J/kg
2400 J/kg
2200 J/kg
2000 J/kg
1800 J/kg
1600 J/kg
1400 J/kg
1200 J/kg
1000 J/kg
800 J/kg
600 J/kg
400 J/kg
200 J/kg
70 dBZ
65 dBZ
60 dBZ
55 dBZ
50 dBZ
45 dBZ
40 dBZ
35 dBZ
30 dBZ
25 dBZ
20 dBZ
15 dBZ
10 dBZ
5 dBZ
<
-1 K
-2 K
-3 K
-4 K
-5 K
-6 K
-7 K
-8 K
-9 K